TimeEDT,TemperatureF,Dew PointF,Humidity,Sea Level PressureIn,VisibilityMPH,Wind Direction,Wind SpeedMPH,Gust SpeedMPH,PrecipitationIn,Events,Conditions,WindDirDegrees,DateUTC
12:13 AM,73.4,71.6,94,29.60,7.0,South,15.0,23.0,0.00,Rain,Light Rain,180,2013-06-28 04:13:00
12:56 AM,73.9,71.1,91,29.59,9.0,South,12.7,24.2,0.00,,Overcast,180,2013-06-28 04:56:00
1:06 AM,73.4,71.6,94,29.59,9.0,South,15.0,21.9,N/A,,Mostly Cloudy,190,2013-06-28 05:06:00
1:15 AM,73.4,71.6,94,29.58,10.0,SSW,13.8,21.9,N/A,,Scattered Clouds,200,2013-06-28 05:15:00
1:56 AM,73.0,70.0,90,29.57,10.0,South,12.7,19.6,N/A,,Partly Cloudy,190,2013-06-28 05:56:00
2:28 AM,73.4,69.8,88,29.57,9.0,South,13.8,20.7,N/A,,Partly Cloudy,190,2013-06-28 06:28:00
2:56 AM,73.9,70.0,87,29.56,10.0,South,12.7,20.7,N/A,,Scattered Clouds,190,2013-06-28 06:56:00
3:37 AM,73.4,69.8,88,29.55,10.0,South,10.4,20.7,N/A,,Overcast,190,2013-06-28 07:37:00
3:56 AM,73.0,69.1,87,29.55,10.0,SSW,12.7,19.6,N/A,,Overcast,200,2013-06-28 07:56:00
4:56 AM,73.0,69.1,87,29.54,10.0,SSW,10.4,-,N/A,,Overcast,200,2013-06-28 08:56:00
5:24 AM,73.4,69.8,88,29.54,9.0,SSW,13.8,19.6,N/A,,Overcast,200,2013-06-28 09:24:00
5:56 AM,73.0,70.0,90,29.54,7.0,SSW,12.7,-,N/A,,Overcast,210,2013-06-28 09:56:00
6:56 AM,73.0,70.0,90,29.55,7.0,SW,11.5,19.6,N/A,,Overcast,220,2013-06-28 10:56:00
7:46 AM,75.2,71.6,89,29.55,10.0,SW,9.2,-,N/A,,Mostly Cloudy,220,2013-06-28 11:46:00
7:56 AM,75.0,70.0,84,29.55,10.0,SW,12.7,-,N/A,,Mostly Cloudy,230,2013-06-28 11:56:00
8:56 AM,77.0,70.0,79,29.53,10.0,SSW,13.8,18.4,N/A,,Mostly Cloudy,210,2013-06-28 12:56:00
9:56 AM,79.0,70.0,74,29.51,10.0,SSW,11.5,-,N/A,,Mostly Cloudy,210,2013-06-28 13:56:00
10:56 AM,79.0,70.0,74,29.52,10.0,SSW,12.7,20.7,N/A,,Mostly Cloudy,200,2013-06-28 14:56:00
11:56 AM,78.1,70.0,76,29.53,10.0,South,15.0,-,N/A,,Mostly Cloudy,190,2013-06-28 15:56:00
12:56 PM,80.1,71.1,74,29.53,10.0,South,13.8,20.7,N/A,,Mostly Cloudy,190,2013-06-28 16:56:00
1:56 PM,79.0,70.0,74,29.52,10.0,SSW,13.8,23.0,N/A,,Mostly Cloudy,210,2013-06-28 17:56:00
2:56 PM,81.0,70.0,69,29.51,10.0,SSW,16.1,25.3,N/A,,Scattered Clouds,210,2013-06-28 18:56:00
3:56 PM,79.0,70.0,74,29.51,10.0,SSW,11.5,23.0,N/A,,Mostly Cloudy,200,2013-06-28 19:56:00
4:56 PM,79.0,70.0,74,29.51,9.0,SSW,13.8,23.0,N/A,,Scattered Clouds,200,2013-06-28 20:56:00
5:56 PM,77.0,70.0,79,29.50,10.0,South,12.7,20.7,N/A,,Mostly Cloudy,190,2013-06-28 21:56:00
6:17 PM,75.2,69.8,83,29.50,8.0,SSW,13.8,24.2,N/A,,Mostly Cloudy,200,2013-06-28 22:17:00
6:56 PM,75.0,70.0,84,29.50,7.0,SSW,10.4,-,N/A,,Mostly Cloudy,210,2013-06-28 22:56:00
7:14 PM,75.2,69.8,83,29.51,8.0,SW,12.7,18.4,N/A,,Mostly Cloudy,220,2013-06-28 23:14:00
7:56 PM,75.0,70.0,84,29.50,8.0,SW,10.4,-,N/A,,Overcast,220,2013-06-28 23:56:00
8:38 PM,73.4,69.8,88,29.50,8.0,SSW,8.1,19.6,N/A,,Overcast,200,2013-06-29 00:38:00
8:56 PM,73.9,70.0,87,29.52,7.0,SW,13.8,19.6,N/A,,Overcast,220,2013-06-29 00:56:00
9:56 PM,73.9,70.0,87,29.53,8.0,SSW,13.8,-,N/A,,Overcast,210,2013-06-29 01:56:00
10:56 PM,73.9,70.0,87,29.52,9.0,SSW,4.6,-,N/A,,Overcast,200,2013-06-29 02:56:00
11:29 PM,73.4,69.8,88,29.52,7.0,South,8.1,-,N/A,,Overcast,180,2013-06-29 03:29:00
11:51 PM,71.6,69.8,94,29.52,7.0,SSW,6.9,-,N/A,,Overcast,200,2013-06-29 03:51:00
11:56 PM,72.0,69.1,91,29.52,7.0,SW,4.6,-,N/A,,Overcast,220,2013-06-29 03:56:00